Regional Weather Roundup
Issued by NWS Little Rock, AR

Home | Current Version | Previous Version | Graphics & Text | Print | Product List | Glossary On
Versions: 1 2 3 4 5 6 7 8 9 10 11 12 13 14 15 16 17 18 19 20 21 22 23 24 25 26 27 28 29 30 31 32 33 34 35 36 37 38 39 40 41 42 43 44 45 46 47 48 49 50
961
ASUS44 KLZK 141805
RWRLZK

WEATHER ROUNDUP FOR ARKANSAS
NATIONAL WEATHER SERVICE LITTLE ROCK AR
1200 PM CST SUN FEB 14 2016

NOTE: "FAIR" INDICATES FEW OR NO CLOUDS BELOW 12,000 FEET WITH NO
SIGNIFICANT WEATHER AND/OR OBSTRUCTIONS TO VISIBILITY.

ARZ001-003-010-029-141900-
NORTHWEST ARKANSAS

CITY           SKY/WX    TMP DP  RH WIND       PRES   REMARKS
FAYETTEVILLE   CLOUDY    36  36 100 CALM      29.98F FOG
6HR MIN TEMP:  35; 6HR MAX TEMP:  38; 6HR PCP:  0.01;

FORT SMITH     CLOUDY    36  24  62 E9        30.01F
6HR MIN TEMP:  34; 6HR MAX TEMP:  37; 6HR PCP: TRACE;

HARRISON       CLOUDY    30  25  81 E5        30.00F HAZE    WCI  25
6HR MIN TEMP:  29; 6HR MAX TEMP:  32;

BENTONVILLE    CLOUDY    37  34  87 S7        29.98F
6HR MIN TEMP:  37; 6HR MAX TEMP:  39; 6HR PCP:  0.01;

ROGERS         MIX PCPN  35  35 100 E6        29.98S FOG     WCI  30
6HR MIN TEMP:  35; 6HR MAX TEMP:  36; 6HR PCP:  0.01;

SILOAM SPGS    CLOUDY    37  28  70 S7        29.98F
6HR MIN TEMP:  36; 6HR MAX TEMP:  39;

HIGHFILL       DRIZZLE   38  37  97 S7        29.97F
6HR MIN TEMP:  36; 6HR MAX TEMP:  40; 6HR PCP:  0.02;

SPRINGDALE     CLOUDY    37  36  93 S5        30.00F
$$

ARZ004-005-016-141900-
NORTH CENTRAL ARKANSAS

CITY           SKY/WX    TMP DP  RH WIND       PRES   REMARKS
BATESVILLE     CLOUDY    37  16  41 CALM      30.07S
6HR MIN TEMP:  30; 6HR MAX TEMP:  37;

FLIPPIN        CLOUDY    32  14  47 E5        30.01F WCI  27
6HR MIN TEMP:  28; 6HR MAX TEMP:  32;

MTN HOME       CLOUDY    29  20  69 E6        30.02F WCI  23
6HR MIN TEMP:  26; 6HR MAX TEMP:  29; 6HR PCP: TRACE;

$$

ARZ040-041-141900-
WEST CENTRAL ARKANSAS

CITY           SKY/WX    TMP DP  RH WIND       PRES   REMARKS
MENA           CLOUDY    46  41  81 W5        30.00F
MOUNT IDA      LGT RAIN  43  34  70 CALM      30.00F
6HR MIN TEMP:  38; 6HR MAX TEMP:  45; 6HR PCP: TRACE;

$$

ARZ009-017-025-026-028-141900-
NORTHEAST ARKANSAS

CITY           SKY/WX    TMP DP  RH WIND       PRES   REMARKS
JONESBORO      CLOUDY    33  25  72 SE8       30.07F WCI  26
6HR MIN TEMP:  28; 6HR MAX TEMP:  33; 6HR PCP: TRACE;

NEWPORT        CLOUDY    40  18  41 SE8       30.07F
6HR MIN TEMP:  31; 6HR MAX TEMP:  40; 6HR PCP: TRACE;

WALNUT RIDGE   CLOUDY    34  16  47 SE6       30.09F WCI  29
6HR MIN TEMP:  28; 6HR MAX TEMP:  34;

BLYTHEVILLE    CLOUDY    36  23  59 S10       30.11F
6HR MIN TEMP:  31; 6HR MAX TEMP:  36; 6HR PCP:  0.01;

$$

ARZ022-023-033-042-044-141900-
CENTRAL ARKANSAS

CITY           SKY/WX    TMP DP  RH WIND       PRES   REMARKS
LITTLE ROCK    CLOUDY    48  28  46 S7        30.05F
6HR MIN TEMP:  35; 6HR MAX TEMP:  48;

N LITTLE ROCK  CLOUDY    45  30  55 S10       30.05F
6HR MIN TEMP:  32; 6HR MAX TEMP:  46;

JACKSONVILLE   CLOUDY    45  26  47 S5        30.03F
6HR MIN TEMP:  33; 6HR MAX TEMP:  45;

SEARCY         CLOUDY    45  25  45 S7        30.06F
6HR MIN TEMP:  32; 6HR MAX TEMP:  45;

HOT SPRINGS    CLOUDY    46  30  53 S6        30.04F
6HR MIN TEMP:  36; 6HR MAX TEMP:  46;

RUSSELLVILLE   CLOUDY    36  19  50 CALM      30.04F
6HR MIN TEMP:  31; 6HR MAX TEMP:  36;

CLINTON        CLOUDY    36  21  55 CALM      30.06S
$$

ARZ036-141900-
EAST ARKANSAS

CITY           SKY/WX    TMP DP  RH WIND       PRES   REMARKS
WEST MEMPHIS   CLOUDY    46  21  37 S20G26    30.09F
6HR MIN TEMP:  33; 6HR MAX TEMP:  46;

$$

ARZ050-053-066-070-073-141900-
SOUTHWEST ARKANSAS

CITY           SKY/WX    TMP DP  RH WIND       PRES   REMARKS
ARKADELPHIA    CLOUDY    51  37  58 S9        30.05F
6HR MIN TEMP:  38; 6HR MAX TEMP:  51;

CAMDEN         CLOUDY    55  36  47 S5        30.07F
TEXARKANA      CLOUDY    54  45  71 S16       30.03F
6HR MIN TEMP:  42; 6HR MAX TEMP:  54;

EL DORADO      CLOUDY    57  43  59 S10       30.07F
6HR MIN TEMP:  43; 6HR MAX TEMP:  57;

DE QUEEN       CLOUDY    47  32  56 CALM      30.01F
6HR MIN TEMP:  41; 6HR MAX TEMP:  47;

$$

ARZ056-057-069-141900-
SOUTHEAST ARKANSAS

CITY           SKY/WX    TMP DP  RH WIND       PRES   REMARKS
PINE BLUFF     CLOUDY    54  34  46 S15       30.06F
6HR MIN TEMP:  39; 6HR MAX TEMP:  54; 6HR PCP: TRACE;

STUTTGART      CLOUDY    50  28  43 S13       30.07F
6HR MIN TEMP:  36; 6HR MAX TEMP:  50;

MONTICELLO     CLOUDY    55  34  45 S10       30.08F
6HR MIN TEMP:  41; 6HR MAX TEMP:  55;


$$






USA.gov is the U.S. government's official web portal to all federal, state and local government web resources and services.